CZ-2D DEB, 31409

Orbit data source: Space-Track

CZ-2D DEB, 31409 is space debris in SSO originally from a launch on Tue, 05 Jul 2005 UTC launched from the Jiuquan Satellite Launch Center, China (JSC). Debris objects in space refer to the collection of defunct objects orbiting the Earth. Examples of debris include non-operational satellites, rocket bodies, and fragments generated from explosions, collisions, or faulty payload assembly.

Loading next visibility...
Identifier
31409, 2005-024J
Orbit
SSO
Last TLE update
19 hours ago
Origin
Manufacturer
Unknown
Mission
Spacecraft
Bus & Motor
Unknown
Mass
Unknown
Launch date (UTC)
2005-07-05 (20 years ago)
Launch vehicle
Unknown
Launch site
Jiuquan Satellite Launch Center, China (JSC)
Object type
Payload
Rocket body
Debris
Shape & HBR
Unknown
Radar Cross Section
Small (<0.1 m²)

Expand to show TLE details & history

TLE from 19 hours ago
0 CZ-2D DEB
1 31409U 05024J   25183.33656251  .00018953  00000-0  28305-3 0  9995
2 31409  97.1904 215.2139 0004199   9.9668 350.1670 15.55075860 79182
Epoch: 2025-07-02T08:04Z
TLE epoch observation values (Epoch: 2025-07-02T08:04:39Z)
Latitude
0.00003°
Longitude
173.43227°
Altitude
402.27 km
Speed
7.671 km/s
True Right ascension
14h 20m 51s
True Declination
0° 00' 00"
Sunlit
Object was in full shadow at epoch
Visualization orbit readout
Latitude
57.99523°
Longitude
5.8102°
Altitude
412.854 km
Speed
7.668 km/s
Apparent Right ascension
03h 00m 18s
Apparent Declination
11° 04' 52"
Sunlit
Object is in daylight
Visualization observer readout
Local Sidereal Time
14:52:54
Azimuth
357.663° N
Elevation
-38.974°
Doppler factor
1
Orbital elements
Apogee altitude
401.688 km
Perigee altitude
395.996 km
Semi-major axis
6,776.979 km
Eccentricity
0.00042
Inclination
97.1904°
RAAN
215.2139°
Arg. of periapsis
9.9668°
True anomaly
Unknown
Mean anomaly
350.167°
Eccentric anomaly
Unknown
Mean motion
3.89035 °/min
Orbital period
92.54 mins
BSTAR
0.00028305
Loading maneuver chart data...
Loading SW <> Apogee altitude chart data...
Loading historical data...
Loading historical data...
Loading historical data...
Loading historical data...
Loading historical data...
Loading historical data...
Loading historical data...

CZ-2D DEB Visibility forecast

Observer location: undefined°, undefined°

Span
Click to sort rows by Start time (UTC) header in descending order
Start Az.
Max El. time (UTC)
Max El. Az.
Max El.
End time (UTC)
End Az.
4 mins2025-07-03 15:31:46.248Z335.107° NNW2025-07-03 15:33:46.248Z272.121° WNW25.135°2025-07-03 15:35:46.248Z228.316° WSW
4 mins2025-07-04 01:55:46.248Z129.84° SE2025-07-04 01:56:46.248Z89.284° E34.507°2025-07-04 01:59:46.248Z2.352° NNE
|